Theta_e
297 295 292 295 296 293 294 292 291 291 294 295 295 295 298 301 300 301 303 304 305 305 307 304 305 306 307 311 321 327 331 335 333 332 331 331 330 331 332 333 331 328 325 324
295 292 295 292 293 293 292 291 290 292 294 294 293 294 298 300 301 302 303 303 304 303 304 303 303 304 304 305 307 314 322 329 334 333 332 333 332 332 333 333 332 329 326 323
293 292 294 293 291 291 291 291 290 290 291 292 291 293 294 297 295 297 298 300 299 299 301 301 304 305 304 304 305 306 313 321 329 334 333 331 331 331 330 330 330 330 327 324
292 292 292 292 290 292 288 292 291 290 291 287 290 286 293 295 295 295 297 298 300 301 301 303 304 306 306 306 306 303 310 317 323 330 331 328 327 326 329 330 332 330 330 327
291 290 290 290 292 292 290 292 292 290 291 290 289 287 292 290 293 296 298 300 301 301 301 301 302 303 304 307 310 312 304 309 319 325 329 329 327 328 330 329 330 330 328 328
292 294 293 292 291 292 292 292 291 290 289 284 289 288 290 291 293 294 296 300 300 300 301 302 302 304 305 307 309 315 312 307 311 319 325 327 326 325 327 330 330 330 328 327
290 291 293 293 291 292 291 291 284 283 283 282 284 284 291 293 292 295 295 300 299 300 301 301 302 303 304 305 306 308 315 315 317 317 321 324 325 326 326 328 329 329 324 321
285 283 290 293 292 290 290 291 285 280 279 283 283 283 290 293 296 296 297 299 299 300 300 300 301 302 303 304 305 306 308 312 316 317 318 320 321 323 322 322 322 320 320 319
285 285 291 291 292 294 289 287 290 282 276 283 286 289 293 293 293 296 297 298 298 298 299 299 300 302 303 303 303 305 306 306 309 313 313 312 314 315 315 314 315 315 316 314
289 283 289 290 293 292 291 292 286 286 281 280 283 284 288 290 292 296 296 297 297 297 298 298 298 299 300 301 303 304 304 304 305 306 307 308 308 310 311 313 312 312 312 311
290 289 286 289 288 288 287 287 287 288 287 284 281 286 293 294 295 296 297 298 297 298 298 298 298 298 299 300 300 301 301 302 303 304 305 305 304 305 305 305 305 305 306 305
291 289 284 287 289 290 289 289 289 285 282 283 283 286 292 292 297 299 297 296 297 298 298 298 297 297 297 297 297 297 298 299 299 300 299 299 299 300 300 299 300 301 301 302
291 289 283 284 287 290 288 288 290 289 288 284 284 286 292 293 295 297 296 296 296 296 296 296 296 296 296 296 296 296 296 295 296 297 296 296 296 297 296 296 296 296 297 297
295 288 287 283 285 289 286 287 288 288 286 286 286 289 291 292 294 295 296 296 296 295 294 295 295 295 295 295 295 295 294 295 295 295 295 294 294 294 294 294 294 294 294 294
292 286 287 288 288 289 289 288 287 287 289 286 289 288 292 295 295 297 297 296 294 293 293 294 294 295 295 294 294 294 294 294 294 294 293 292 292 292 292 292 292 291 291 291
293 286 286 283 287 287 286 287 288 289 289 289 290 289 293 297 299 296 296 294 293 293 294 294 293 293 292 292 293 293 293 292 293 292 291 291 291 290 290 290 289 290 290 290
290 286 285 284 285 286 283 286 288 289 291 290 287 291 294 292 295 295 295 295 294 293 293 293 293 293 292 292 292 291 291 292 291 290 289 288 288 288 288 287 287 287 288 288
286 286 286 283 284 278 288 289 292 289 291 292 292 293 294 295 296 298 298 295 294 293 293 293 293 293 292 291 290 290 290 290 289 288 287 286 286 286 286 286 286 286 287 286
290 287 285 283 282 286 289 286 288 287 288 293 291 293 292 291 292 290 293 296 294 293 293 293 293 291 289 289 288 288 287 288 287 286 286 285 285 283 284 284 285 285 285 285
289 289 285 283 281 279 284 286 290 293 285 291 293 293 290 291 289 292 289 290 289 290 290 290 289 288 287 286 286 286 285 285 284 283 283 284 283 282 282 283 283 284 284 284
283 284 281 282 281 284 288 286 290 283 287 285 288 293 290 291 292 289 288 287 288 288 287 287 286 284 284 283 284 283 283 280 280 281 281 281 281 281 282 282 282 282 282 282
282 282 282 282 280 277 286 287 287 288 285 286 287 289 287 287 287 287 287 286 286 284 283 284 283 281 281 280 280 279 279 278 278 277 277 277 278 280 281 280 280 281 281 281
282 287 285 285 285 287 286 287 288 287 287 285 286 287 286 285 284 285 285 285 284 282 280 279 280 279 277 276 276 275 275 275 273 271 272 274 275 277 279 279 281 282 281 280
282 283 284 286 286 285 285 286 287 286 285 285 286 286 286 284 285 284 284 282 281 280 278 277 277 276 275 273 272 271 272 271 267 268 270 273 274 275 277 279 279 280 281 281
283 283 282 283 282 282 284 284 286 284 284 284 284 284 285 285 284 284 282 280 279 276 275 275 274 273 272 271 270 269 268 266 266 267 269 271 273 274 274 276 277 278 280 282
282 281 282 284 285 287 286 285 285 284 283 283 283 282 282 284 282 281 279 277 275 274 272 272 270 269 268 267 266 266 264 263 263 266 269 270 270 272 273 274 275 278 279 281
Wind_Speed
2 6 13 16 8 2 8 5 6 3 1 4 8 12 14 12 8 12 12 12 12 11 5 5 8 9 10 13 16 18 17 18 12 9 9 7 9 8 7 8 11 11 10 11
5 12 5 8 8 7 8 6 4 3 2 3 2 13 12 13 12 11 12 12 12 9 9 4 3 4 8 11 12 14 17 17 15 10 9 8 8 7 8 9 9 11 11 11
10 2 12 7 7 7 3 5 4 1 2 2 6 10 6 4 6 7 8 9 7 8 8 5 1 2 4 5 7 10 14 16 16 16 10 6 2 3 6 8 8 10 11 11
3 2 9 10 7 4 5 6 6 7 4 3 3 6 5 3 9 5 4 4 1 3 2 3 4 5 5 4 3 6 10 13 13 15 12 15 12 11 10 8 7 7 11 13
6 10 11 8 6 6 3 6 7 3 3 2 3 6 3 2 9 5 7 3 2 2 2 4 5 4 5 5 4 1 5 9 11 13 14 11 14 10 9 7 9 9 9 11
4 3 2 3 5 2 13 9 6 4 1 6 5 7 7 6 3 3 4 3 2 3 4 4 4 4 6 6 6 5 4 4 8 11 14 14 13 11 9 10 8 7 5 7
2 2 1 3 10 5 3 10 4 4 6 5 2 5 10 4 4 3 2 2 3 4 4 4 5 6 7 7 7 6 6 6 4 7 9 11 12 12 12 11 8 7 4 3
10 6 9 5 3 10 7 6 6 7 6 2 2 9 5 2 2 3 2 3 4 4 4 5 5 6 7 7 7 7 7 8 6 6 4 3 2 1 1 1 2 0 1 2
8 6 1 1 2 6 8 8 3 8 2 2 6 5 11 7 7 4 6 6 4 4 5 4 5 6 6 7 8 7 8 8 8 7 6 6 5 4 3 3 2 1 1 1
8 5 2 1 1 2 4 12 4 2 5 6 5 6 8 6 11 10 10 9 6 4 5 5 6 7 6 7 7 9 9 9 8 8 8 8 8 7 6 5 5 4 3 3
6 4 2 2 8 13 6 7 1 3 3 4 3 5 5 9 11 14 11 9 8 7 6 6 7 7 8 8 9 9 8 8 8 8 8 9 8 8 7 7 6 5 4 4
4 5 6 8 1 3 2 8 10 6 7 4 1 7 1 2 9 12 12 9 7 7 7 7 7 7 8 8 9 8 8 8 8 8 9 9 8 8 8 8 7 6 5 4
10 4 5 2 2 0 7 6 8 2 2 9 7 9 3 0 9 8 12 10 9 9 8 7 7 7 8 8 8 8 8 8 7 7 8 9 9 9 8 7 7 6 6 5
2 3 12 15 6 8 8 8 7 9 5 15 12 18 4 7 12 11 11 11 11 10 9 8 7 6 6 6 7 7 7 6 5 6 8 10 8 7 7 7 7 7 6 6
3 7 5 8 2 4 5 13 17 17 26 13 25 19 14 16 17 18 15 14 13 13 11 10 9 7 6 6 6 6 7 7 6 7 7 8 6 6 6 6 6 5 5 5
1 2 2 1 2 2 2 8 18 24 25 21 24 21 1 14 14 13 16 16 16 14 13 10 9 8 6 6 6 5 6 6 5 6 7 7 7 6 6 6 6 6 6 6
7 7 4 5 5 4 4 22 15 14 17 17 21 30 8 8 15 17 17 18 17 15 13 11 9 7 6 6 5 6 5 5 6 7 7 8 7 6 7 7 7 7 7 7
5 4 2 4 4 9 9 2 14 21 18 19 19 16 10 14 17 12 14 17 15 14 13 10 9 8 6 5 5 4 4 5 5 5 5 6 6 6 6 6 6 6 5 7
2 4 4 6 11 9 7 6 9 13 21 21 21 20 6 6 7 2 7 11 13 13 11 9 8 7 6 5 4 4 4 4 5 6 6 6 6 7 8 7 8 7 7 7
7 2 2 4 7 12 3 2 2 5 15 9 19 21 12 12 9 6 12 12 14 12 10 10 8 7 7 5 3 4 5 5 7 7 7 6 6 6 7 8 8 6 7 8
6 5 10 7 4 7 4 5 4 9 4 1 2 5 13 10 3 15 14 13 12 11 11 9 8 7 6 5 3 5 5 7 7 6 7 6 6 7 7 8 7 8 9 9
12 9 6 5 6 12 6 4 8 1 1 2 2 3 7 10 14 16 16 15 13 13 10 8 7 7 6 7 6 6 7 8 8 9 8 8 7 7 7 8 8 9 9 10
7 5 6 10 8 3 4 1 2 1 2 3 3 7 16 16 16 14 13 13 11 10 8 6 6 6 6 8 9 8 8 9 10 9 8 8 9 8 8 9 9 8 8 9
5 4 3 2 4 3 3 3 4 1 2 5 10 12 12 17 13 12 11 10 9 7 6 4 5 5 5 6 7 6 7 8 7 9 10 9 9 11 10 8 8 8 8 9
2 8 5 5 1 1 6 7 5 5 8 10 7 7 13 14 11 11 9 8 7 6 4 4 4 4 4 5 5 5 7 7 8 9 9 9 8 10 10 9 9 9 9 10
6 7 7 5 7 2 2 9 11 11 9 9 10 6 4 7 10 10 9 7 6 5 3 3 3 3 4 6 6 6 6 6 6 8 7 7 8 8 8 10 10 12 18 21
Wind_Direction
71 181 192 180 178 128 142 150 155 118 106 191 247 263 267 270 245 253 250 245 247 244 266 245 264 252 233 226 226 222 219 215 209 200 195 194 200 197 200 199 198 190 192 194
156 211 173 101 127 123 125 155 156 117 97 230 268 271 261 259 256 242 240 247 259 272 271 245 253 252 231 237 230 231 226 219 208 206 205 207 202 208 207 204 197 195 190 190
181 143 144 136 141 143 122 170 170 95 123 73 302 271 241 231 259 265 244 252 263 279 293 299 310 302 266 239 247 235 226 222 216 214 204 202 201 185 200 206 199 200 195 189
126 109 149 140 166 151 180 172 131 126 180 232 319 282 270 214 263 232 237 204 287 352 49 50 43 45 31 360 287 236 222 217 217 212 209 210 214 217 218 210 203 196 200 206
153 161 152 175 184 171 137 130 127 96 122 276 188 262 254 7 264 213 151 120 68 52 29 58 48 36 33 18 15 19 201 213 210 210 213 210 218 224 228 210 191 192 196 204
70 348 134 111 71 55 142 107 78 85 144 244 211 243 246 206 239 144 133 105 85 96 94 75 58 39 41 35 42 51 98 172 204 212 212 215 221 225 223 224 205 196 189 201
122 140 61 146 106 108 218 162 120 198 203 246 73 226 269 240 205 161 74 74 91 98 96 69 53 46 38 30 37 49 73 79 126 190 209 217 222 224 229 229 225 193 182 181
169 202 178 172 188 166 187 211 169 192 199 164 106 233 234 146 5 268 179 112 115 104 85 59 48 52 49 39 42 53 55 64 80 113 119 131 87 240 242 262 229 26 175 180
170 191 14 38 146 169 168 210 76 100 38 254 208 245 266 221 235 176 152 145 120 99 87 77 74 69 68 61 56 60 76 75 73 80 88 75 70 73 84 77 63 29 10 353
181 114 9 123 172 27 215 136 138 208 192 227 224 268 242 204 198 176 169 153 135 110 99 84 73 75 73 67 67 68 68 71 77 85 87 85 85 80 79 77 66 37 20 8
140 121 122 163 217 175 151 178 156 172 196 206 260 240 220 225 178 175 171 159 146 134 114 96 89 84 84 77 68 67 65 67 70 75 79 82 74 74 76 72 62 39 16 7
166 110 155 193 37 349 332 202 182 192 198 259 350 254 27 261 182 171 162 155 140 128 124 118 113 106 94 84 76 70 67 69 64 68 72 69 71 66 60 54 45 28 17 10
174 181 112 127 215 198 220 186 223 184 60 201 191 251 26 92 182 171 162 162 160 150 147 135 126 114 101 91 82 73 65 66 57 67 75 70 59 61 59 52 42 28 18 17
112 124 206 216 212 135 202 191 200 197 197 226 232 251 162 188 186 181 178 167 166 166 160 151 138 119 105 94 91 84 72 57 57 60 65 65 51 45 45 43 33 23 13 14
203 197 193 246 354 167 193 189 189 201 226 213 244 241 233 198 196 195 177 172 175 174 172 168 152 136 124 106 92 83 69 53 47 62 63 59 55 46 41 40 32 21 11 6
179 134 114 224 102 188 229 210 204 213 227 230 248 257 273 190 203 179 188 180 183 178 174 164 154 141 120 102 92 86 71 60 57 59 54 44 37 32 26 21 15 12 6 2
165 144 136 223 150 120 277 225 204 219 231 223 234 243 176 188 198 199 192 191 184 175 167 162 154 133 114 97 79 69 57 51 57 53 40 34 21 15 12 3 1 359 349 340
142 125 126 139 153 218 243 66 218 213 228 220 244 250 204 207 205 210 194 177 171 165 157 147 138 128 109 100 87 91 73 74 73 55 35 28 12 7 357 351 350 342 331 330
112 137 169 195 209 295 250 188 160 183 241 228 230 242 176 126 121 178 166 166 157 149 141 132 124 117 108 93 90 103 86 76 59 36 16 7 1 352 345 340 337 329 319 314
174 164 207 165 201 213 14 158 147 109 269 203 214 231 179 155 202 184 158 130 122 123 126 129 120 112 100 75 80 92 69 55 29 4 350 343 345 342 331 323 317 308 296 290
168 174 207 212 235 277 212 136 172 171 241 317 234 204 164 195 276 123 123 112 111 113 110 106 95 89 85 49 52 66 60 37 358 345 340 338 333 324 312 310 306 304 302 298
181 172 182 185 211 252 149 112 201 99 73 244 188 159 122 114 122 121 121 121 120 114 104 95 102 89 64 35 31 34 34 357 350 345 332 327 320 318 315 314 312 313 309 305
205 215 176 192 205 135 200 331 6 177 211 207 163 142 131 128 127 121 123 124 123 117 105 84 96 93 55 32 29 16 1 352 346 337 332 326 324 319 318 309 300 298 296 293
232 197 229 180 182 187 247 247 270 222 156 129 125 126 129 126 125 122 122 125 123 117 107 91 94 79 58 30 24 9 352 349 339 334 329 325 324 323 313 304 293 286 284 285
144 155 170 262 214 258 240 219 186 126 117 112 92 108 129 125 124 128 127 123 119 108 85 67 64 60 39 11 8 8 2 356 345 333 323 316 308 304 301 290 290 286 279 274
187 171 196 232 176 201 196 171 158 146 142 134 128 111 77 122 133 132 129 126 129 125 112 97 66 30 11 359 354 360 6 357 331 315 308 309 303 305 304 305 305 289 284 284